COSMOS 1275 DEB, 14408

Orbit data source: Space-Track

COSMOS 1275 DEB, 14408 is space debris in LEO originally from a launch on Thu, 04 Jun 1981 UTC launched from the Plesetsk Missile And Space Complex (PKMTR). Debris objects in space refer to the collection of defunct objects orbiting the Earth. Examples of debris include non-operational satellites, rocket bodies, and fragments generated from explosions, collisions, or faulty payload assembly.

Loading next visibility...
Identifier
14408, 1981-053JD
Orbit
LEO
Country
Flag of CISCIS
Related business
Manufacturer
Unknown
Mission
Spacecraft
Bus & Motor
Unknown
Mass
Unknown
Launch date (UTC)
1981-06-04 (45 years ago)
Launch vehicle
Unknown
Launch site
Plesetsk Missile And Space Complex (PKMTR)
Object type
Payload
Rocket body
Debris
Shape & HBR
Unknown shape, 0.1 m
Radar Cross Section
Small (<0.1 m²)

Expand to show TLE details & history
Last TLE update: 1 day ago

TLE from 1 day ago
0 COSMOS 1275 DEB
1 14408U 81053JD  25349.35290907  .00000975  00000-0  99768-3 0  9995
2 14408  82.9611 307.9891 0112459 179.7095 332.4373 13.72814030678233
Epoch: 2025-12-15T08:28Z
TLE epoch observation values (Epoch: 2025-12-15T08:28:11.343Z)
Latitude
28.2667°
Longitude
-87.0976°
Altitude
919.698 km
Speed
7.431 km/s
True Right ascension
08h 16m 48s
True Declination
28° 07' 36"
Sunlit
Object was in full shadow at epoch
Visualization orbit readout
Latitude
Unknown
Longitude
Unknown
Altitude
Unknown
Speed
Unknown
Apparent Right ascension
Unknown
Apparent Declination
Unknown
Sunlit
N/A
Visualization observer readout
Local Sidereal Time
12:38:05
Azimuth
Unknown
Elevation
Unknown
Doppler factor
Unknown
Orbital elements
Apogee altitude
1,069.46 km
Perigee altitude
903.813 km
Semi-major axis
7,364.773 km
Eccentricity
0.01125
Inclination
82.9611°
RAAN
307.9891°
Arg. of periapsis
179.7095°
True anomaly
331.83349°
Mean anomaly
332.4373°
Eccentric anomaly
332.13615°
Mean motion
3.43403 °/min
Orbital period
104.83 mins
BSTAR
0.00099768
Loading maneuver chart data...
Computing Atmospheric mass density...
Loading historical data...
Loading historical data...
Loading historical data...
Loading historical data...
Loading historical data...
Loading historical data...
Loading historical data...

Documentation

Showing up to 5 results
|